Tracking 30313 objects as of 21-Apr-2025
HD Live streaming from Space Station
objects crossing your sky now

OBJECT AG

Track OBJECT AG now!
10-day predictions


NORAD ID: 57034
Int'l Code: 2023-085AG
Perigee: 420.4 km
Apogee: 427.1 km
Inclination: 97.5 °
Period: 92.9 minutes
Semi major axis: 6794 km
RCS: Unknown
Launch date: June 15, 2023
Source: People's Republic of China (PRC)
Launch site: Taiyaun Space Center, China (TSC)
Your satellite tracking list
Your tracking list is empty




NASA's NSSDC Master Catalog

Two Line Element Set (TLE):
1 57034U 23085AG  25111.51580632  .00090362  00000-0  15952-2 0  9991
2 57034  97.4691 223.9972 0004984 108.3965 251.7829 15.50040141102815
Source of the keplerian elements: AFSPC